Location: G�ppingen
(48.7000°N, 9.6670°E)
Time: 10:29:02
(UTC+01:00)

ISS - Visible Passes

Search period start: 24 January 2018 00:00
Search period end: 03 February 2018 00:00
Orbit: 402 x 407 km, 51.6° (Epoch: 24 January)

Date Brightness Start Highest point End Pass type
(mag) Time Alt. Az. Time Alt. Az. Time Alt. Az.
25 Jan -0.9 19:45:59 10° SW 19:46:21 12° SSW 19:46:21 12° SSW visible
26 Jan -2.2 18:54:13 10° SSW 18:56:29 22° SSE 18:56:29 22° SSE visible
27 Jan -1.6 18:02:56 10° S 18:04:44 14° SE 18:06:32 10° ESE visible
27 Jan -2.0 19:37:29 10° WSW 19:39:12 28° SW 19:39:12 28° SW visible
28 Jan -3.3 18:45:20 10° SW 18:48:27 43° SSE 18:49:10 36° ESE visible
28 Jan -0.3 20:21:39 10° W 20:21:50 11° W 20:21:50 11° W visible
29 Jan -2.5 17:53:25 10° SSW 17:56:13 27° SE 17:59:02 10° E visible
29 Jan -2.9 19:29:13 10° WSW 19:31:44 49° W 19:31:44 49° W visible
30 Jan -3.9 18:36:51 10° WSW 18:40:06 78° SSE 18:41:34 30° ENE visible
30 Jan -0.7 20:13:32 10° W 20:14:13 15° WNW 20:14:13 15° WNW visible
31 Jan -3.3 19:21:02 10° W 19:24:01 52° NNW 19:24:01 52° NNW visible
01 Feb -3.7 18:28:33 10° W 18:31:48 68° NNW 18:33:46 22° ENE visible
01 Feb -1.1 20:05:21 10° WNW 20:06:25 19° WNW 20:06:25 19° WNW visible
02 Feb -3.4 19:12:51 10° WNW 19:16:02 48° N 19:16:09 47° N visible
